Regional Weather Roundup
Issued by NWS

Home | Current Version | Previous Version | Text Only | Print | Product List | Glossary On
Versions: 1 2 3 4 5 6 7 8 9 10 11 12 13 14 15 16 17 18 19 20 21 22 23 24 25 26 27 28 29 30 31 32 33 34 35 36 37 38 39 40 41 42 43 44 45 46 47 48 49 50
000
ASUS43 KMKX 130100
RWRWI

WISCONSIN REGIONAL WEATHER ROUNDUP
NATIONAL WEATHER SERVICE MILWAUKEE/SULLIVAN WI
800 PM CDT SAT JUL 12 2014

NOTE: "FAIR" INDICATES FEW OR NO CLOUDS BELOW 12,000 FEET WITH NO
SIGNIFICANT WEATHER AND/OR OBSTRUCTIONS TO VISIBILITY.

WIZ001-002-006>008-014>016-023>028-130200-
NORTHWEST WISCONSIN

CITY           SKY/WX    TMP DP  RH WIND       PRES   REMARKS
SUPERIOR ARPT  CLEAR     72  60  66 W7        29.87S
ASHLAND        CLOUDY    72  62  71 W6        29.87F
HAYWARD        MOCLDY    72  61  68 W6        29.90S
SIREN          CLEAR     71  61  69 W7        29.91S
RICE LAKE      MOCLDY    69  66  89 S3        29.92F
LADYSMITH      CLOUDY    66  65  94 SE3       29.94F
EAU CLAIRE     NOT AVBL
MENOMONIE      MOCLDY    69  67  93 SE5       29.93S
NEW RICHMOND   PTCLDY    72  68  88 CALM      29.93S
OSCEOLA        CLEAR     73  63  70 W3        29.94F
$$

WIZ003>005-009-010-017-018-130200-
NORTH CENTRAL WISCONSIN

CITY           SKY/WX    TMP DP  RH WIND       PRES   REMARKS
WOODRUFF       LGT RAIN  64  62  91 S12       29.91F
RHINELANDER    LGT RAIN  63  62  97 W6        29.94F
EAGLE RIVER    RAIN      63  62  95 SW8       29.92S
LAND O LAKES   CLOUDY    65  60  82 SW8       29.92F
PHILLIPS       CLOUDY    64  64  98 S10       29.92F
TOMAHAWK       LGT RAIN  63  61  95 SW3       29.93F
MEDFORD        LGT RAIN  63  62  96 CALM      29.94F
MERRILL        LGT RAIN  64  64  99 SE3       29.93F
$$

WIZ029-030-035-036-043>047-130200-
CENTRAL WISCONSIN

CITY           SKY/WX    TMP DP  RH WIND       PRES   REMARKS
WAUSAU         LGT RAIN  66  63  90 SE5       29.91F
MOSINEE        RAIN      64  64 100 VRB5      29.95F
MARSHFIELD     CLOUDY    65  64  97 CALM      29.92F
STEVENS POINT  LGT RAIN  64  62  93 NW10      29.95F
WAUPACA        LGT RAIN  70  63  79 NW9       29.91F
WAUTOMA        NOT AVBL
WISC RAPIDS    LGT RAIN  66  64  93 N6        29.93F
CAMP DOUGLAS   NOT AVBL
$$

WIZ011>013-019>022-031-037>040-048>050-130200-
NORTHEAST WISCONSIN

CITY           SKY/WX    TMP DP  RH WIND       PRES   REMARKS
ANTIGO         LGT RAIN  62  62  99 CALM      29.95F
STURGEON BAY   CLOUDY    68  63  83 CALM      29.87F
GREEN BAY      CLOUDY    75  69  81 W16G26    29.88S
MANITOWOC      NOT AVBL
APPLETON       LGT RAIN  73  70  88 NW10      29.90
CLINTONVILLE   CLOUDY    68  61  77 N8        29.91R
OSHKOSH        LGT RAIN  73  71  93 NW3       29.87F FOG
$$

WIZ032>034-041-042-053>061-130200-
SOUTHWEST WISCONSIN

CITY           SKY/WX    TMP DP  RH WIND       PRES   REMARKS
LA CROSSE      MOCLDY    69  65  86 CALM      29.91F
SPARTA         LGT RAIN  66  65  94 N5        29.94F
VIROQUA        CLOUDY    65  65 100 N8        29.95S
BOSCOBEL       CLOUDY    70  66  87 CALM      29.93S
PRAIRIE DU CHI RAIN      68  64  86 NW8       29.92S
PLATTEVILLE    FAIR      75  73  93 NW7       29.89F
$$

WIZ056-057-062-063-064-067-068-130200-
SOUTH CENTRAL WISCONSIN

CITY           SKY/WX    TMP DP  RH WIND       PRES   REMARKS
BARABOO/DELLS  CLOUDY    70  68  92 NW7       29.90S
LONE ROCK      HVY RAIN  75  72  88 NW16      29.89S VSB 1/4
WATERTOWN      CLOUDY    74  73  98 SW5       29.88S FOG
MADISON        LGT RAIN  75  71  87 S6        29.86F FOG
MIDDLETON      CLOUDY    76  74  93 CALM      29.88F
MONROE         CLOUDY    75  72  88 CALM      29.88F
JANESVILLE     CLOUDY    77  73  88 CALM      29.86F
$$

WIZ051-052-058>065-066-070>072-130200-
SOUTHEAST WISCONSIN

CITY           SKY/WX    TMP DP  RH WIND       PRES   REMARKS
MILWAUKEE      LGT RAIN  74  71  91 SE6       29.88F FOG
WAUKESHA       CLOUDY    72  70  94 CALM      29.90F FOG
MILWAUKEE/TIMM NOT AVBL
RACINE         LGT RAIN  72  70  93 SE9       29.89F FOG
BURLINGTON     LGT RAIN  72  71  97 S6        29.88F
KENOSHA        CLOUDY    75  72  90 E5        29.89F
FOND DU LAC    CLOUDY    73  70  90 N3        29.87F FOG
SHEBOYGAN      LGT RAIN  73  71  93 CALM      29.88S FOG
WEST BEND      LGT RAIN  72  68  88 CALM      29.89F
JUNEAU         CLOUDY    73  57  55 S3        29.90S HAZE
$$

LSZ147-162-130200-
LAKE SUPERIOR

STATION/POSITION TIME  TEMP    WIND        PRES    WAVE
                       AIR SEA DIR/SP/G            HT/PER
                 (UTC) (F)     (DEG/KT/KT) (MB)    (FT/S)
W MID LAKE BUOY  2350   47 39  240/  2/  2 1011.2F   0
PORT WING        0000   74     230/  7/ 11 1011.5
SAXON HARBOR     0000             CALM     1011.5F
$$

LMZ867-665-643>646-130200-
LAKE MICHIGAN

STATION/POSITION TIME  TEMP    WIND        PRES    WAVE
                       AIR SEA DIR/SP/G            HT/PER
                 (UTC) (F)     (DEG/KT/KT) (MB)    (FT/S)
N MID LAKE BUOY  2350   58 57  200/ 12/ 14 1011.3F   2/ 4
NORTHPORT PIER   0000   68     160/  3/  5 1011.5F
KEWAUNEE LAKESHO 0000   55     140/  2/  4 1012.6F
SHEBOYGAN LAKESH 0000   69     160/  7/  8 1012.0F
PORT WASHINGTON  0000   68     190/  2/  5 1012.9F
MILWAUKEE LAKESH 0000   75     220/  8/  9   N/A
S MID LAKE BUOY  2350   63 61  160/  8/ 10 1014.2F   1/ 4
KENOSHA   LAKESH 0000   73      90/  5/  6   N/A
$$

TC  - TEMPERATURE IN CELSIUS
VSB - VISIBILITY IN STATUTE MILES
WCI - WIND CHILL INDEX
HX  - HEAT INDEX



USA.gov is the U.S. government's official web portal to all federal, state and local government web resources and services.